This demonstration page uses our WeatherBlox Daily Observations layout. Learn more.

Left ArrowRight Arrow

Hourly Observations for February 14, 2018

Temp ( °F °C ) Dew Point ( °F °C ) Humidity (%) Winds ( mph kmh ) Pressure ( in mb ) Visibility ( mi km ) Precip ( " mm )
12:54 am 00:54 Clear with Mist and Fog 22 -5.6 19 -7.2 89 89 Calm 30.14 1021 5 8 0.00 0.00
1:54 am 01:54 Clear 22 -5.6 19 -7.2 89 89 Calm 30.12 1020 7 11 0.00 0.00
2:54 am 02:54 Clear with Mist and Fog 22 -5.6 20 -6.7 92 92 SSW 3 6 30.09 1019 6 10 0.00 0.00
3:54 am 03:54 Clear 24 -4.4 22 -5.6 91 91 S 3 6 30.06 1018 7 11 0.00 0.00
4:54 am 04:54 Clear with Mist and Fog 23 -5 20 -6.7 88 88 Calm 30.06 1018 6 10 0.00 0.00
5:54 am 05:54 Clear with Mist and Fog 22 -5.6 19 -7.2 89 89 Calm 30.04 1017 6 10 0.00 0.00
6:54 am 06:54 Clear with Mist and Fog 23 -5 21 -6.1 92 92 Calm 30.05 1018 6 10 0.00 0.00
7:54 am 07:54 Sunny with Mist and Fog 27 -2.8 25 -3.9 92 92 S 3 6 30.04 1017 4 6 0.00 0.00
8:54 am 08:54 Sunny with Mist and Fog 33 0.6 31 -0.6 92 92 SSW 6 9 30.04 1017 5 8 0.00 0.00
9:54 am 09:54 Sunny with Mist and Fog 36 2.2 33 0.6 89 89 SSW 12 19 30.02 1017 5 8 0.00 0.00
10:54 am 10:54 Hazy 39 3.9 34 1.1 82 82 SSW 10 17 30.00 1016 6 10 0.00 0.00
11:54 am 11:54 Sunny 42 5.6 36 2.2 79 79 SSW 9 15 29.98 1015 7 11 0.00 0.00
12:54 pm 12:54 Sunny 44 6.7 36 2.2 73 73 SSW 10 17 29.95 1014 7 11 0.00 0.00
1:54 pm 13:54 Sunny 47 8.3 38 3.3 71 71 SSW 12 19 29.91 1013 8 13 0.00 0.00
2:54 pm 14:54 Sunny 46 7.8 38 3.3 73 73 SSW 10 17 29.88 1012 8 13 0.00 0.00
3:54 pm 15:54 Sunny 47 8.3 39 3.9 74 74 S 13 20 29.85 1011 8 13 0.00 0.00
4:54 pm 16:54 Sunny 46 7.8 39 3.9 77 77 S 7 11 29.85 1011 7 11 0.00 0.00
5:54 pm 17:54 Sunny 42 5.6 37 2.8 82 82 S 3 6 29.84 1011 7 11 0.00 0.00
6:54 pm 18:54 Clear 41 5 36 2.2 82 82 S 3 6 29.83 1010 8 13 0.00 0.00
7:54 pm 19:54 Clear 42 5.6 36 2.2 79 79 SSE 3 6 29.82 1010 8 13 0.00 0.00
8:54 pm 20:54 Clear 37 2.8 34 1.1 89 89 Calm 29.81 1010 7 11 0.00 0.00
9:54 pm 21:54 Clear with Mist and Fog 35 1.7 33 0.6 93 93 N 8 13 29.81 1010 5 8 0.00 0.00
10:54 pm 22:54 Clear with Mist and Fog 35 1.7 33 0.6 93 93 N 7 11 29.81 1010 5 8 0.00 0.00
11:54 pm 23:54 Clear with Mist and Fog 34 1.1 32 0 92 92 Calm 29.80 1009 6 10 0.00 0.00

Powered by AerisWeather